TimeCST,TemperatureF,Dew PointF,Humidity,Sea Level PressureIn,VisibilityMPH,Wind Direction,Wind SpeedMPH,Gust SpeedMPH,PrecipitationIn,Events,Conditions,WindDirDegrees,DateUTC
12:15 AM,32.5,22.5,66,30.15,10.0,WSW,6.9,-,N/A,,Clear,240,2013-02-13 06:15:00
12:35 AM,32.4,22.1,66,30.15,10.0,WSW,5.8,-,N/A,,Clear,240,2013-02-13 06:35:00
12:55 AM,31.6,21.7,67,30.15,10.0,SSW,3.5,-,N/A,,Clear,210,2013-02-13 06:55:00
1:15 AM,30.2,21.0,69,30.15,10.0,West,4.6,-,N/A,,Clear,260,2013-02-13 07:15:00
1:35 AM,29.7,20.3,68,30.15,10.0,West,5.8,-,N/A,,Clear,270,2013-02-13 07:35:00
1:55 AM,29.5,20.3,69,30.15,10.0,West,4.6,-,N/A,,Clear,270,2013-02-13 07:55:00
2:15 AM,28.6,19.8,70,30.15,10.0,Calm,Calm,-,N/A,,Clear,0,2013-02-13 08:15:00
2:35 AM,26.6,19.0,73,30.16,10.0,Calm,Calm,-,N/A,,Clear,0,2013-02-13 08:35:00
2:55 AM,24.8,18.1,76,30.16,10.0,SSE,4.6,-,N/A,,Clear,160,2013-02-13 08:55:00
3:15 AM,26.1,18.5,73,30.15,10.0,West,3.5,-,N/A,,Clear,270,2013-02-13 09:15:00
3:35 AM,25.7,18.5,74,30.15,10.0,Calm,Calm,-,N/A,,Clear,0,2013-02-13 09:35:00
3:55 AM,26.4,18.3,71,30.14,10.0,Calm,Calm,-,N/A,,Clear,0,2013-02-13 09:55:00
4:15 AM,26.2,18.9,74,30.14,10.0,Calm,Calm,-,N/A,,Clear,0,2013-02-13 10:15:00
4:35 AM,26.6,19.6,75,30.13,10.0,South,3.5,-,N/A,,Clear,180,2013-02-13 10:35:00
4:55 AM,25.7,19.0,76,30.13,10.0,SW,4.6,-,N/A,,Clear,230,2013-02-13 10:55:00
5:15 AM,25.9,18.9,75,30.14,10.0,WSW,5.8,-,N/A,,Clear,250,2013-02-13 11:15:00
5:35 AM,25.3,17.6,72,30.14,10.0,WSW,5.8,-,N/A,,Clear,250,2013-02-13 11:35:00
5:55 AM,25.0,16.3,70,30.15,10.0,WSW,6.9,-,N/A,,Clear,250,2013-02-13 11:55:00
6:15 AM,24.8,15.6,68,30.15,10.0,West,6.9,-,N/A,,Clear,270,2013-02-13 12:15:00
6:35 AM,25.3,14.9,65,30.15,10.0,West,5.8,-,N/A,,Clear,270,2013-02-13 12:35:00
6:55 AM,23.9,14.7,68,30.15,10.0,WSW,4.6,-,N/A,,Clear,250,2013-02-13 12:55:00
7:15 AM,23.5,15.3,71,30.16,10.0,WSW,6.9,-,N/A,,Clear,250,2013-02-13 13:15:00
7:35 AM,23.5,15.4,71,30.15,10.0,West,5.8,-,N/A,,Clear,260,2013-02-13 13:35:00
7:55 AM,22.6,14.9,72,30.15,10.0,Calm,Calm,-,N/A,,Clear,0,2013-02-13 13:55:00
8:15 AM,23.9,16.5,73,30.16,10.0,Calm,Calm,-,N/A,,Clear,0,2013-02-13 14:15:00
8:35 AM,26.6,18.3,71,30.16,10.0,Calm,Calm,-,N/A,,Clear,0,2013-02-13 14:35:00
8:55 AM,29.7,20.3,68,30.16,10.0,Calm,Calm,-,N/A,,Clear,0,2013-02-13 14:55:00
9:15 AM,32.7,21.6,64,30.16,10.0,Calm,Calm,-,N/A,,Clear,0,2013-02-13 15:15:00
11:15 AM,48.7,17.8,29,30.15,10.0,WSW,4.6,-,N/A,,Clear,240,2013-02-13 17:15:00
12:55 PM,57.2,15.3,19,30.09,10.0,Calm,Calm,-,N/A,,Clear,0,2013-02-13 18:55:00
1:15 PM,59.2,12.2,16,30.08,10.0,WSW,13.8,17.3,N/A,,Clear,240,2013-02-13 19:15:00
1:35 PM,60.1,10.6,14,30.07,10.0,WSW,11.5,-,N/A,,Clear,240,2013-02-13 19:35:00
2:15 PM,60.4,10.2,14,30.04,10.0,WSW,13.8,19.6,N/A,,Clear,240,2013-02-13 20:15:00
3:15 PM,61.5,10.2,13,30.01,10.0,West,10.4,17.3,N/A,,Clear,280,2013-02-13 21:15:00
3:35 PM,61.7,10.9,14,30.00,10.0,West,16.1,-,N/A,,Clear,260,2013-02-13 21:35:00
3:55 PM,61.9,11.1,14,29.99,10.0,WSW,8.1,-,N/A,,Clear,240,2013-02-13 21:55:00
4:35 PM,61.9,12.0,14,29.98,10.0,WSW,9.2,18.4,N/A,,Clear,250,2013-02-13 22:35:00
5:15 PM,61.7,11.7,14,29.98,10.0,West,9.2,-,N/A,,Clear,270,2013-02-13 23:15:00
5:35 PM,61.3,11.8,14,29.98,10.0,West,12.7,-,N/A,,Clear,260,2013-02-13 23:35:00
5:55 PM,60.6,12.0,15,29.98,10.0,West,12.7,-,N/A,,Clear,260,2013-02-13 23:55:00
6:35 PM,55.8,10.4,16,29.98,10.0,West,6.9,-,N/A,,Clear,260,2013-02-14 00:35:00
6:55 PM,51.8,9.5,18,29.98,10.0,West,8.1,-,N/A,,Clear,260,2013-02-14 00:55:00
8:15 PM,48.0,8.6,20,30.00,10.0,WSW,10.4,-,N/A,,Clear,250,2013-02-14 02:15:00
8:55 PM,43.2,9.3,25,30.02,10.0,SW,9.2,-,N/A,,Clear,230,2013-02-14 02:55:00
9:15 PM,42.8,9.9,26,30.02,10.0,SW,9.2,-,N/A,,Clear,230,2013-02-14 03:15:00
9:55 PM,40.5,9.5,28,30.03,10.0,WSW,8.1,-,N/A,,Clear,250,2013-02-14 03:55:00
10:15 PM,37.9,9.7,31,30.03,10.0,SW,8.1,-,N/A,,Clear,230,2013-02-14 04:15:00
10:35 PM,38.8,10.2,31,30.03,10.0,SW,8.1,-,N/A,,Clear,220,2013-02-14 04:35:00
11:15 PM,41.0,10.0,28,30.03,10.0,SW,9.2,-,N/A,,Clear,230,2013-02-14 05:15:00
11:35 PM,39.2,9.5,29,30.03,10.0,SW,9.2,-,N/A,,Clear,220,2013-02-14 05:35:00
11:55 PM,37.9,9.9,31,30.03,10.0,SW,6.9,-,N/A,,Clear,230,2013-02-14 05:55:00